Miscellaneous Local Product
Issued by NWS North Platte, NE

Home | Current Version | Previous Version | Text Only | Print | Product List | Glossary On
Versions: 1 2 3 4 5 6 7 8 9 10 11 12 13 14 15 16 17 18 19 20 21 22 23 24 25 26 27 28 29 30 31 32 33 34 35 36 37 38 39 40 41 42 43 44 45 46 47 48 49 50
529
AXUS43 KLBF 241010
MISLBF


WESTERN AND NORTH CENTRAL NEBRASKA HOURLY WEATHER ROUNDUP
NATIONAL WEATHER SERVICE NORTH PLATTE NE
500 AM CDT MON APR 24 2017

NOTE: "FAIR" INDICATES FEW OR NO CLOUDS BELOW 12,000 FEET WITH NO
SIGNIFICANT WEATHER AND/OR OBSTRUCTIONS TO VISIBILITY.

NOTE: STATIONS NOT REPORTING VARIABLES SUCH AS SKY/WEATHER OR
PRESSURE ARE PROVIDED BY RAWS AND APRS NETWORKS AND ARE NOT UNDER
NATIONAL WEATHER SERVICE QUALITY CONTROL.

...OBSERVATIONS IN AND NEAR THE EASTERN PANHANDLE OF NEBRASKA...

CITY           SKY/WX    TMP DP  RH WIND       PRES   REMARKS
PINE RIDGE     CLOUDY    41  39  93 W3        29.55F
CHADRON        PTCLDY    43  40  89 W3        29.58S
ALLIANCE       CLOUDY    42  38  85 W8        29.57R
SIDNEY         CLOUDY    49  39  68 NW15      29.59R
CRESCENT LAKE    N/A     48  39  70 W6          N/A
$$

...OBSERVATIONS IN NORTHERN NEBRASKA AND FAR SOUTHERN SOUTH DAKOTA...

CITY           SKY/WX    TMP DP  RH WIND       PRES   REMARKS
WINNER         FAIR      55  36  48 S9        29.54R
VALENTINE      CLOUDY    55  32  41 SW9       29.56F
THEDFORD       CLOUDY    52  36  53 S15G22    29.55F
AINSWORTH      CLOUDY    52  38  58 SW8G24    29.58R
O`NEILL        CLOUDY    53  34  48 S14       29.63F
ORD            MOCLDY    52  34  50 SE13      29.63F
BROKEN BOW     CLOUDY    52  34  50 S23G37    29.59F
VALENTINE NWR    N/A     51  32  49 S14         N/A
HALSEY           N/A     51  33  51 S9G20       N/A
BUTTE            N/A     54  36  51 SE14G26     N/A
CHAMBERS         N/A     51  33  51 S6          N/A
EWING            N/A     51  37  58 S7          N/A
$$

...OBSERVATIONS IN SOUTHWEST NEBRASKA AND FAR NORTHEAST COLORADO...

CITY           SKY/WX    TMP DP  RH WIND       PRES   REMARKS
HOLYOKE        FAIR      43  37  81 CALM      29.54R
IMPERIAL       PTCLDY    44  36  73 SE8       29.51F
OGALLALA       PTCLDY    47  33  57 CALM      29.55R
NORTH PLATTE   CLOUDY    50  36  58 SE12      29.55F
MCCOOK         CLOUDY    53  35  50 S10       29.56F
LEXINGTON      CLOUDY    52  35  51 S21G29    29.59F
STAPLETON        N/A     47  35  64 CALM        N/A
GOTHENBURG       N/A     52  33  48 S12         N/A
CALLAWAY         N/A     50  36  59 S22         N/A
$$

...OBSERVATIONS IN CENTRAL LINCOLN COUNTY AREA...

CITY           SKY/WX    TMP DP  RH WIND       PRES   REMARKS
N.P. AIRPORT   CLOUDY    50  36  58 SE12      29.55F
N.P. DOWNTOWN    N/A     50  36  58 MISG        N/A
N.P. HILLCREST   N/A     50  37  59 SE12        N/A
$$

...SOME OBSERVATIONS FROM AROUND THE REGION...

CITY           SKY/WX    TMP DP  RH WIND       PRES   REMARKS
DENVER         MOCLDY    50  35  56 NE7       29.68R
LIMON          CLOUDY    37  36  96 N8        29.63S WCI  31
ASPEN          CLOUDY    40  37  89 S13       29.85F WCI  32
LARAMIE        LGT RAIN  38  35  89 NW14      29.79R WCI  30
CASPER         CLOUDY    40  37  89 NE8       29.72R WCI  34
CHEYENNE       CLOUDY    47  35  63 NW17G26   29.70F
SCOTTSBLUFF    CLOUDY    48  38  68 W8        29.62S
GRAND ISLAND   PTCLDY    52  36  54 S21G26    29.68F
OMAHA          CLOUDY    54  36  50 S14       29.81F
SIOUX FALLS    CLOUDY    55  35  47 S18       29.69S
PIERRE         CLOUDY    40  37  89 NW3       29.53F
RAPID CITY     CLOUDY    38  37  97 N15       29.59R WCI  29
BISMARCK       LGT RAIN  33  32  96 NE15      29.67F WCI  23
KANSAS CITY    CLOUDY    45  37  73 S10       29.91F
HILL CITY      CLOUDY    53  37  54 S16G23    29.63F
WICHITA        CLEAR     48  40  73 S14       29.87S
DODGE CITY     CLEAR     50  36  58 S20G29    29.74F
OKLAHOMA CITY  PTCLDY    43  38  82 S8        29.92S
DALLAS         CLEAR     52  44  74 SW8       29.93F
AMARILLO       CLEAR     50  32  50 S20G29    29.84F
$$




USA.gov is the U.S. government's official web portal to all federal, state and local government web resources and services.